Regional Weather Roundup
Issued by NWS

Home | Current Version | Previous Version | Text Only | Print | Product List | Glossary Off
Versions: 1 2 3 4 5 6 7 8 9 10 11 12 13 14 15 16 17 18 19 20 21 22 23 24 25 26 27 28 29 30 31 32 33 34 35 36 37 38 39 40 41 42 43 44 45 46 47 48 49 50

168
ASUS43 KMKX 240600
RWRWI

WISCONSIN REGIONAL WEATHER ROUNDUP
NATIONAL WEATHER SERVICE MILWAUKEE/SULLIVAN WI
100 AM CDT WED AUG 24 2016

NOTE: "FAIR" INDICATES FEW OR NO CLOUDS BELOW 12,000 FEET WITH NO
SIGNIFICANT WEATHER AND/OR OBSTRUCTIONS TO VISIBILITY.

WIZ001-002-006>008-014>016-023>028-240700-
NORTHWEST WISCONSIN

CITY           SKY/WX    TMP DP  RH WIND       PRES   REMARKS
SUPERIOR ARPT  CLOUDY    66  64  93 W3        29.84R
ASHLAND        CLOUDY    69  63  81 SE3       29.85F
6HR MIN TEMP:  68; 6HR MAX TEMP:  78;

HAYWARD        CLOUDY    68  62  81 SE6       29.87F
6HR MIN TEMP:  68; 6HR MAX TEMP:  76;

SIREN          CLOUDY    69  61  75 S13G22    29.86F
CUMBERLAND     CLOUDY    64  61  88 S9        29.86F
RICE LAKE      CLOUDY    66  62  87 SE7       29.86F
CHETEK         NOT AVBL
LADYSMITH      CLOUDY    68  64  85 SE5       29.89F
EAU CLAIRE     CLOUDY    69  67  93 SE5       29.86R
MENOMONIE      CLOUDY    67  67  99 SE5       29.86R
6HR MIN TEMP:  67; 6HR MAX TEMP:  76; 6HR PCP:  0.26;

NEW RICHMOND   RAIN      67  66  97 S6        29.87S
OSCEOLA        LGT RAIN  68  68 100 S6        29.88F
$$

WIZ003>005-009-010-017-018-240700-
NORTH CENTRAL WISCONSIN

CITY           SKY/WX    TMP DP  RH WIND       PRES   REMARKS
MANITOWISH WTR NOT AVBL
ARBOR VITAE    CLOUDY    69  64  83 S9        29.95F
WOODRUFF       CLOUDY    69  64  83 S9        29.95F
RHINELANDER    CLOUDY    67  63  87 S10       29.96F
6HR MIN TEMP:  67; 6HR MAX TEMP:  74;

EAGLE RIVER    CLOUDY    65  59  81 S5        29.96F
LAND O LAKES   CLOUDY    67  61  81 S8        29.96F
PHILLIPS       DRIZZLE   68  64  86 SE8       29.89F
6HR MIN TEMP:  68; 6HR MAX TEMP:  73;

TOMAHAWK       CLOUDY    65  61  85 CALM      29.95F
MEDFORD        LGT RAIN  65  65 100 SE9       29.92F
MERRILL        LGT RAIN  67  63  87 SE5       29.96F
$$

WIZ029-030-035-036-043>047-240700-
CENTRAL WISCONSIN

CITY           SKY/WX    TMP DP  RH WIND       PRES   REMARKS
WAUSAU         RAIN      67  63  87 S12       29.95S
6HR MIN TEMP:  67; 6HR MAX TEMP:  75; 6HR PCP:  0.01;

MOSINEE        LGT RAIN  64  63  94 S9        29.99R
MARSHFIELD     RAIN      67  64  90 SE17      29.90F FOG
6HR MIN TEMP:  67; 6HR MAX TEMP:  71; 6HR PCP:  0.12;

STEVENS POINT  RAIN      66  63  89 S8        29.98F
WAUPACA        CLOUDY    71  65  80 SE8       29.98F
WAUTOMA        RAIN      70  66  87 S6        29.97F
6HR MIN TEMP:  68; 6HR MAX TEMP:  75;

WISC RAPIDS    HVY RAIN  67  67 100 VRB3      29.98F FOG
6HR MIN TEMP:  67; 6HR MAX TEMP:  76; 6HR PCP:  0.33;

CAMP DOUGLAS   TSTM      68  68 100 S3        29.95F FOG
$$

WIZ011>013-019>022-031-037>040-048>050-240700-
NORTHEAST WISCONSIN

CITY           SKY/WX    TMP DP  RH WIND       PRES   REMARKS
ANTIGO         CLOUDY    64  61  91 S10       29.98F
SHAWANO        CLOUDY    68  63  82 S5        29.99F
OCONTO         NOT AVBL
STURGEON BAY   CLOUDY    67  63  87 S7        30.02F
6HR MIN TEMP:  66; 6HR MAX TEMP:  71;

GREEN BAY      CLOUDY    67  64  90 S6        30.00F
6HR MIN TEMP:  66; 6HR MAX TEMP:  76;

MANITOWOC      NOT AVBL
APPLETON       CLOUDY    70  59  68 S12G18    29.99F
CLINTONVILLE   CLOUDY    68  61  77 S8        29.98F
OSHKOSH        MOCLDY    70  62  76 S12       29.97F
6HR MIN TEMP:  64; 6HR MAX TEMP:  75;

$$

WIZ032>034-041-042-053>061-240700-
SOUTHWEST WISCONSIN

CITY           SKY/WX    TMP DP  RH WIND       PRES   REMARKS
LA CROSSE      RAIN      68  50  53 S7        29.91R
6HR MIN TEMP:  68; 6HR MAX TEMP:  78; 6HR PCP:  0.52;

SPARTA         RAIN      65  65  99 SE7       29.94F
VIROQUA        CLOUDY    65  65 100 SE3       29.95S
6HR MIN TEMP:  65; 6HR MAX TEMP:  73; 6HR PCP:  1.02;

BOSCOBEL       TSTM      68  67  96 W5        29.95R FOG
6HR MIN TEMP:  68; 6HR MAX TEMP:  78; 6HR PCP:  1.94;

PRAIRIE DU CHI DRIZZLE   67  65  94 CALM      29.93F
PLATTEVILLE    CLOUDY    72  71  96 S17G26    29.97F
$$

WIZ056-057-062-063-064-067-068-240700-
SOUTH CENTRAL WISCONSIN

CITY           SKY/WX    TMP DP  RH WIND       PRES   REMARKS
REEDSBURG      NOT AVBL
BARABOO/DELLS  TSTM      69  65  87 S10       29.98R
LONE ROCK      CLOUDY    72  68  87 S12       29.95F
MINERAL POINT  CLOUDY    72  70  94 S18       29.97F
MADISON        CLOUDY    72  66  81 S17G25    29.99S
6HR MIN TEMP:  72; 6HR MAX TEMP:  76;

MIDDLETON      CLOUDY    73  66  80 S15G23    30.00S
WATERTOWN      CLOUDY    72  66  82 S12       30.02S
MONROE         CLOUDY    70  66  88 S17G28    30.02R
JANESVILLE     CLOUDY    73  64  73 S16G23    30.03R
$$

WIZ051-052-058>065-066-070>072-240700-
SOUTHEAST WISCONSIN

CITY           SKY/WX    TMP DP  RH WIND       PRES   REMARKS
MILWAUKEE      CLOUDY    75  62  64 S10       30.04S
6HR MIN TEMP:  72; 6HR MAX TEMP:  80;

WAUKESHA       CLOUDY    70  61  73 S10       30.05S
MILWAUKEE/TIMM CLOUDY    72  59  64 S14       30.04S
RACINE         CLOUDY    73  62  68 MISG      30.06F
6HR MIN TEMP:  71; 6HR MAX TEMP:  75;

BURLINGTON     CLOUDY    71  62  72 S7        30.05R
KENOSHA        CLOUDY    74  63  68 S12       30.06S
6HR MIN TEMP:  71; 6HR MAX TEMP:  78;

FOND DU LAC    CLOUDY    71  63  75 S13       29.99F
6HR MIN TEMP:  66; 6HR MAX TEMP:  75; 6HR PCP: TRACE;

SHEBOYGAN      PTCLDY    68  63  84 S9        30.02F
6HR MIN TEMP:  64; 6HR MAX TEMP:  73;

WEST BEND      CLOUDY    70  61  73 S7        30.03S
JUNEAU         CLOUDY    70  64  80 S13       30.02F
$$

LSZ147-162-240700-
LAKE SUPERIOR

STATION/POSITION TIME  TEMP    WIND        PRES    WAVE
                       AIR SEA DIR/SP/G            HT/PER
                 (UTC) (F)     (DEG/KT/KT) (MB)    (FT/S)
W MID LAKE BUOY  0450   70 67  180/ 10/ 12 1011.1F   1/ 3
DEVILS ISLAND    0500   72     180/  7/ 11 1011.0F
PORT WING        0500   73     160/  8/ 15 1010.5F
SAXON HARBOR     0540   73     160/  3/  8 1011.2F
$$

LMZ867-665-643>646-240700-
LAKE MICHIGAN

STATION/POSITION TIME  TEMP    WIND        PRES    WAVE
                       AIR SEA DIR/SP/G            HT/PER
                 (UTC) (F)     (DEG/KT/KT) (MB)    (FT/S)
CHAMBERS ISLAND  0500   71     170/  6/ 12 1016.3F
S GREEN BAY BUOY 0500   72 73  190/ 16/ 17 1015.8F
N MID LAKE BUOY  0450   72 71  190/ 16/ 17 1016.2F   5/ 6
NORTHPORT PIER   0500   70     180/  6/ 11 1016.6
SISTER BAY       0537   69     160/ 11/ 13   N/A
KEWAUNEE LAKESHO 0500   63     180/  6/  7 1016.4F
SHEBOYGAN LAKESH 0500   67     180/ 17/ 19 1016.4F
PORT WASHINGTON  0500   63     200/  4/  7 1017.9F
ATWATER BUOY     0500   62 51  170/  8/ 10   N/A
MILWAUKEE LAKESH 0510   66     160/ 11/ 12   N/A
S MID LAKE BUOY  0450   75 75  160/ 17/ 21 1017.6F   3/ 4
KENOSHA   LAKESH 0500   69     180/ 12/ 18 1017.3F
$$

TC  - TEMPERATURE IN CELSIUS
VSB - VISIBILITY IN STATUTE MILES
WCI - WIND CHILL INDEX
HX  - HEAT INDEX





USA.gov is the U.S. government's official web portal to all federal, state and local government web resources and services.